Temperature
24 25 25 24 24 24 24 24 23 23 23 24 24 24 24 23 23 23 22 22 21 21 20 20 19 19 19 19 18 18 18 18 17 17 17 16 16 16 16 16 15 15 15 15
24 24 25 24 25 24 24 24 24 24 24 25 25 24 24 23 23 22 22 21 21 21 20 20 19 19 19 19 18 18 18 18 17 17 17 16 16 16 16 16 15 15 15 15
23 24 24 23 24 24 24 25 24 23 24 25 24 24 24 23 23 22 21 21 21 20 20 20 19 19 19 19 19 18 18 18 17 17 17 16 16 16 16 16 15 15 15 15
23 23 21 23 26 25 25 25 25 25 25 25 24 24 23 23 22 22 21 21 21 20 20 20 20 19 19 19 18 18 18 18 17 17 17 16 16 16 16 16 15 15 15 15
22 21 22 24 25 25 24 24 25 25 25 25 24 24 23 23 22 22 21 21 21 20 20 20 20 20 19 19 18 18 18 18 17 17 17 16 16 16 16 15 15 15 15 14
21 21 21 23 25 25 25 23 25 25 24 24 24 22 22 22 22 21 21 21 20 20 20 20 20 20 19 19 18 18 18 17 17 17 17 16 16 16 15 15 15 14 14 14
21 21 22 24 25 25 23 23 24 24 24 24 23 22 22 21 21 21 21 20 20 20 20 19 20 19 19 19 18 18 18 17 17 17 16 16 16 15 15 15 14 14 14 14
21 20 21 23 24 23 23 24 23 23 23 23 22 22 21 21 20 20 20 20 19 19 19 19 19 19 19 18 18 18 17 17 17 16 16 15 15 15 15 14 14 14 14 14
22 21 22 23 23 23 23 23 23 22 22 22 21 21 21 20 20 19 19 19 19 19 19 19 19 19 18 18 18 17 17 17 16 16 15 15 15 15 14 14 14 14 14 13
22 22 22 22 22 22 22 22 22 22 21 21 21 20 20 20 19 19 18 18 18 18 18 18 18 18 18 18 17 17 17 16 16 15 15 15 15 15 14 14 14 14 14 13
21 21 21 21 21 21 21 21 21 21 21 21 20 20 20 19 19 18 18 18 18 18 18 18 17 17 17 17 17 16 16 16 15 15 15 15 14 14 14 14 14 14 14 13
20 21 21 21 20 20 20 20 20 20 20 20 19 19 19 19 18 18 17 17 17 17 17 17 17 17 17 16 16 16 15 15 15 15 14 14 14 14 14 14 14 14 13 13
20 20 20 20 20 19 19 19 19 19 19 19 19 19 18 18 18 17 17 17 17 17 16 16 16 16 16 16 15 15 15 15 14 14 14 14 14 14 14 14 13 13 13 13
19 19 19 19 19 19 19 19 19 18 18 18 18 18 18 17 17 17 16 16 16 16 16 16 16 16 16 15 15 15 14 14 14 14 14 14 14 14 13 13 13 13 13 13
18 18 18 18 18 18 18 18 18 18 18 17 17 17 17 17 17 16 16 16 16 15 15 15 15 15 15 15 14 14 14 14 14 14 13 13 13 13 13 13 13 13 13 12
17 17 17 17 17 17 17 17 17 17 17 17 17 16 16 16 16 16 15 15 15 15 15 15 15 15 14 14 14 14 14 14 13 13 13 13 12 12 12 12 12 12 12 12
16 16 16 16 16 16 16 16 16 16 16 16 16 16 16 15 15 15 15 15 15 14 14 14 14 14 14 14 14 13 13 13 13 13 13 12 12 12 12 12 11 11 11 11
15 16 16 16 15 15 15 15 15 15 15 15 15 15 15 15 15 14 14 14 14 14 14 13 13 13 13 13 13 13 13 13 12 12 12 12 12 11 11 11 11 11 11 11
14 14 14 15 14 14 14 14 14 14 14 14 14 14 14 14 14 14 14 13 13 13 13 13 13 13 13 13 12 12 12 12 12 12 12 11 11 11 11 11 11 11 10 10
13 13 13 14 14 14 13 13 13 14 14 14 14 14 14 14 14 13 13 13 13 13 13 13 12 12 12 12 12 12 11 11 11 11 11 11 10 10 10 10 10 10 10 10
12 13 13 13 13 13 13 13 13 13 13 13 13 13 13 13 13 13 13 12 12 12 12 12 12 12 12 12 11 11 11 11 10 10 10 10 10 10 10 9 9 9 9 9
12 12 12 12 12 12 12 12 12 12 12 12 12 12 12 12 12 12 12 12 12 12 12 12 11 11 11 11 11 11 10 10 10 10 10 9 9 9 9 9 9 9 9 9
11 11 11 11 11 11 11 11 11 11 11 11 11 11 11 11 11 11 11 11 11 11 11 11 11 11 11 10 10 10 10 10 9 9 9 9 9 9 8 8 8 8 8 8
10 10 10 10 10 11 11 11 11 11 11 11 11 11 11 11 10 11 11 10 10 10 10 10 10 10 10 10 9 9 9 9 9 9 9 8 8 8 8 8 7 7 7 7
9 9 9 9 9 10 10 10 10 10 10 10 10 10 10 10 10 10 10 10 10 10 10 9 9 9 9 9 9 9 9 9 8 8 8 8 8 7 7 7 7 6 6 6
9 9 9 9 9 9 9 9 9 9 9 9 9 9 9 9 9 9 9 9 9 9 9 8 8 8 8 8 8 8 8 8 8 7 7 7 7 7 7 6 6 6 6 6
8 8 8 8 8 8 8 8 8 8 8 8 8 8 8 8 8 8 8 8 8 8 8 8 8 7 7 7 7 7 7 7 7 7 7 7 6 6 6 6 6 5 5 5
Wind_Speed
8 6 7 8 9 9 9 8 6 5 5 3 4 4 5 5 4 5 6 7 8 8 8 9 9 9 9 8 9 10 9 8 7 7 6 5 5 5 3 2 3 3 4 4
9 7 8 8 9 9 10 9 8 7 5 1 3 3 4 5 5 5 5 6 6 7 8 9 9 8 8 8 9 9 10 8 7 7 7 6 5 5 4 3 2 3 3 4
8 7 8 10 10 11 10 8 7 7 4 2 3 3 3 4 5 5 5 5 5 6 7 8 9 8 8 8 8 9 9 9 8 8 7 7 6 6 6 5 3 2 3 4
7 8 9 5 5 7 8 8 7 6 3 3 3 3 3 3 4 5 5 5 5 5 5 6 8 9 9 8 8 9 9 9 9 8 8 7 6 6 6 5 5 4 3 4
6 7 7 7 7 8 8 7 6 5 4 4 4 3 3 4 3 3 4 5 4 5 5 5 6 8 9 9 9 8 8 9 9 9 9 8 7 7 5 5 5 5 4 5
6 7 6 4 4 4 5 6 5 5 4 4 5 3 2 3 3 3 3 3 3 4 4 4 5 6 8 8 9 9 9 9 9 9 9 8 8 6 5 5 5 5 5 5
9 8 6 2 2 4 4 2 3 3 4 4 3 2 4 4 4 3 4 3 3 3 3 4 5 6 7 7 7 7 7 8 8 9 8 8 7 6 5 5 5 5 5 4
8 8 6 2 3 3 1 2 3 3 3 3 5 5 5 5 4 3 4 3 2 2 3 3 4 6 6 6 6 6 7 8 8 8 8 7 7 6 5 6 5 5 4 4
4 3 3 2 2 2 1 2 2 3 4 5 4 4 4 3 3 3 2 3 3 3 3 3 4 5 5 5 6 7 7 8 8 8 7 7 7 6 5 5 5 4 4 4
4 3 3 2 2 2 2 2 3 3 3 3 2 3 3 3 3 3 2 2 2 4 4 3 4 4 4 5 6 7 7 7 7 7 7 6 6 6 6 5 5 5 4 4
4 2 2 2 2 2 2 2 2 2 2 2 2 3 3 3 3 3 3 2 2 3 4 4 4 4 5 5 6 6 6 6 6 6 6 6 5 4 5 5 6 5 4 4
3 2 2 2 2 2 1 1 0 0 1 2 2 2 3 3 3 3 3 3 2 3 3 4 4 4 4 5 6 6 5 5 5 5 5 5 5 3 2 3 5 6 5 5
2 3 2 1 2 1 2 2 1 1 1 2 2 2 2 3 3 3 3 3 3 3 3 4 4 4 4 5 5 5 5 5 4 5 5 5 5 5 3 1 1 3 6 7
1 2 2 1 1 1 1 2 2 1 1 2 2 2 3 3 4 4 3 3 3 3 3 3 4 4 4 4 4 4 4 5 5 4 4 4 5 5 5 5 4 2 4 7
2 1 2 2 1 1 1 2 2 2 2 2 2 2 2 2 3 3 3 3 3 3 3 3 3 3 3 4 4 4 3 3 4 4 4 4 4 4 4 5 5 4 3 3
3 2 2 1 1 0 0 1 1 1 1 1 2 2 2 2 3 3 3 3 3 2 2 2 2 2 2 3 3 3 3 5 4 4 4 4 3 4 4 4 4 4 5 4
3 4 3 3 2 1 1 0 0 1 1 1 1 2 2 2 3 3 3 3 2 2 2 2 2 2 2 3 3 3 3 4 5 3 3 3 3 3 3 4 4 4 4 5
3 3 2 2 1 1 1 1 0 0 0 1 0 1 2 2 3 3 3 3 2 2 2 2 3 3 2 3 2 2 2 3 3 3 3 3 2 2 2 3 3 3 2 4
1 1 1 0 0 0 1 1 0 1 1 1 1 1 2 2 2 2 3 3 2 2 1 2 3 3 2 3 2 2 2 2 2 2 2 3 3 2 2 3 3 3 3 3
1 1 1 1 1 1 1 1 1 1 1 1 1 1 2 2 2 2 3 3 2 2 1 2 3 2 2 2 2 1 2 2 2 2 1 2 1 1 1 2 2 2 2 2
2 2 2 2 1 1 1 1 1 1 1 1 1 1 1 1 1 2 2 2 2 3 2 2 2 2 2 1 2 2 2 2 2 2 2 2 1 1 1 1 1 1 1 1
1 1 2 2 1 1 1 1 1 1 1 1 1 1 1 1 1 1 1 2 2 4 2 2 1 2 1 1 2 2 2 2 2 1 1 1 1 1 1 1 1 0 0 0
0 0 1 1 2 2 1 1 1 1 1 1 1 1 1 1 1 2 2 2 3 3 1 2 2 2 1 1 2 2 2 2 2 2 1 1 1 1 1 0 0 0 0 0
1 1 1 2 1 1 2 1 1 1 1 1 1 1 1 1 1 1 2 3 3 3 1 2 2 3 3 2 2 2 2 2 2 2 2 1 1 1 1 0 0 0 0 0
1 1 2 2 2 1 1 1 1 0 1 0 0 0 0 1 2 2 2 2 3 3 1 2 3 3 3 2 2 2 2 2 2 2 2 1 1 1 1 1 0 0 0 0
1 1 1 2 2 1 1 1 0 0 0 0 1 1 1 1 2 2 2 2 1 1 1 2 2 2 2 2 2 2 2 2 2 2 2 1 1 1 1 1 1 1 1 1
1 1 1 1 1 1 1 1 0 1 1 1 0 1 1 1 1 1 1 2 1 1 1 1 1 1 1 1 1 1 1 1 2 2 2 1 1 1 1 1 1 1 2 2
Wind_Direction
253 253 239 227 222 224 232 240 244 247 247 218 150 141 136 137 143 153 160 166 167 163 168 170 176 177 177 177 171 166 165 168 170 165 155 159 157 151 145 138 141 138 126 120
253 249 253 243 227 224 229 237 239 254 260 213 149 139 144 152 153 157 167 171 173 171 170 173 177 176 171 171 173 169 168 169 167 163 157 160 156 151 142 137 124 124 127 123
250 239 251 246 229 227 230 235 231 242 243 194 166 168 169 164 161 163 173 175 177 183 181 181 180 175 173 177 172 170 168 163 163 162 159 163 163 154 152 149 148 149 140 126
252 244 246 242 221 219 228 234 230 232 214 207 182 169 157 160 170 178 177 176 181 190 188 187 179 174 176 175 170 174 169 165 164 164 160 159 161 162 162 157 161 159 147 132
253 249 250 242 216 208 220 228 224 219 207 197 170 173 165 152 153 160 171 172 173 182 188 186 182 176 174 173 172 174 170 168 166 164 160 161 168 170 168 166 162 163 162 155
240 246 248 230 177 176 217 227 211 208 189 187 180 184 162 119 121 128 134 147 154 166 180 184 184 175 175 175 172 176 172 169 164 161 161 166 172 169 166 165 165 167 168 164
241 247 253 242 151 163 217 207 138 157 164 180 180 129 110 99 89 100 109 116 134 163 181 188 180 171 172 170 172 169 161 159 157 157 161 164 166 166 165 166 165 171 169 170
227 238 235 183 180 189 118 72 93 112 113 104 95 98 103 104 103 106 114 118 132 161 171 174 167 167 170 170 163 154 152 152 153 156 163 164 160 167 169 165 170 180 178 180
217 210 145 145 113 76 57 47 53 79 85 93 95 104 113 119 120 115 116 136 145 155 154 153 155 159 164 158 149 147 147 152 155 157 160 158 160 167 171 175 182 189 182 185
219 198 169 155 94 49 45 35 31 60 82 93 118 124 125 129 126 124 121 133 147 152 152 151 150 149 151 143 145 146 150 153 155 157 159 162 167 173 177 182 187 190 191 190
240 194 162 123 91 58 51 37 27 48 80 108 124 136 130 133 131 130 127 123 143 154 149 142 140 143 140 142 147 155 158 157 160 162 160 162 162 170 177 182 180 180 188 180
250 249 236 175 145 119 95 62 35 79 108 107 116 129 125 129 128 129 134 134 138 146 146 150 148 147 146 148 156 164 166 166 163 157 156 160 158 146 121 159 167 170 171 173
292 330 358 56 73 109 135 127 116 105 125 124 126 124 133 129 126 129 137 141 144 145 152 156 149 151 152 153 162 170 165 163 159 160 163 167 168 168 169 114 124 185 188 181
347 7 335 359 358 10 111 121 119 112 102 113 119 119 124 133 134 143 148 145 139 142 148 145 145 149 153 158 161 170 168 163 157 160 168 174 178 179 179 182 194 216 213 199
304 293 271 276 298 80 94 105 108 101 87 83 88 104 120 138 146 146 137 128 130 141 148 148 145 147 157 163 163 171 168 162 159 163 169 176 182 185 190 196 197 188 178 201
265 230 232 235 234 256 124 132 131 113 95 90 95 103 104 105 121 126 122 128 144 149 137 137 143 148 156 154 155 164 168 165 161 167 173 180 186 194 199 201 203 196 195 188
241 221 213 209 212 248 281 284 136 112 109 106 112 131 129 120 118 122 121 119 122 123 133 142 142 144 147 140 143 153 156 162 165 172 177 183 193 204 203 202 208 210 201 184
240 234 229 198 188 215 272 325 33 357 90 114 98 129 141 145 144 146 144 133 115 100 103 117 118 119 120 126 136 149 155 161 176 183 181 189 199 205 206 211 212 207 196 187
252 240 243 232 187 286 324 315 304 288 274 181 171 160 151 158 153 147 142 139 143 146 126 99 114 126 134 131 128 146 159 163 172 177 178 182 197 204 209 214 212 206 197 186
232 237 219 229 201 197 256 287 268 262 263 217 201 184 173 162 153 149 143 146 154 153 121 120 140 147 134 131 146 163 166 173 170 168 176 189 208 220 218 219 220 220 209 203
211 219 215 221 228 212 221 229 234 251 271 233 211 203 188 166 152 144 137 145 132 109 114 128 144 143 148 156 171 173 177 181 182 184 182 184 205 223 232 233 230 234 233 224
219 217 221 222 223 234 234 226 232 239 250 251 208 190 174 151 138 138 146 148 122 111 122 144 142 122 108 148 177 179 173 171 176 182 183 182 188 210 231 248 248 234 210 219
291 305 256 236 235 244 244 235 239 235 225 229 230 212 184 176 186 175 173 129 119 117 134 171 165 152 152 180 180 168 165 166 166 167 170 178 186 188 193 244 336 16 115 220
335 322 305 300 283 256 257 256 248 252 223 199 223 236 203 169 159 129 120 134 137 146 169 174 169 180 193 192 177 173 176 171 166 169 175 178 175 170 149 136 105 2 98 69
268 287 294 301 303 304 288 293 298 329 6 33 229 202 151 143 148 136 133 148 151 152 162 174 183 194 196 181 174 178 181 177 171 165 169 169 163 155 146 147 157 176 120 110
301 297 301 305 320 330 318 294 210 233 333 8 359 24 50 81 107 121 130 139 137 143 171 180 187 186 183 175 179 185 186 180 168 164 167 165 155 153 160 176 189 159 131 108
300 302 318 322 328 319 307 296 250 222 200 171 165 32 36 72 116 125 131 146 156 164 172 175 185 185 182 176 176 179 182 174 163 154 156 163 164 166 164 165 136 110 97 89
Height
1491 1488 1490 1492 1494 1496 1499 1501 1508 1507 1504 1500 1499 1500 1503 1506 1508 1511 1514 1517 1520 1523 1526 1529 1532 1535 1539 1542 1545 1547 1550 1552 1555 1557 1559 1561 1562 1563 1565 1566 1567 1567 1567 1568
1491 1488 1488 1490 1490 1492 1494 1495 1498 1500 1500 1494 1496 1499 1502 1505 1507 1510 1513 1515 1518 1521 1524 1527 1529 1532 1535 1539 1542 1544 1547 1549 1552 1554 1556 1558 1560 1561 1562 1563 1565 1566 1566 1566
1496 1489 1490 1496 1488 1489 1490 1490 1493 1499 1497 1494 1496 1498 1501 1503 1506 1509 1511 1513 1516 1519 1521 1524 1527 1529 1532 1535 1539 1541 1544 1546 1549 1552 1553 1555 1557 1559 1560 1561 1562 1563 1564 1565
1494 1495 1507 1490 1478 1481 1485 1486 1487 1489 1490 1492 1495 1498 1500 1502 1505 1507 1509 1511 1514 1516 1518 1521 1524 1526 1529 1533 1535 1538 1541 1543 1546 1548 1550 1552 1554 1556 1557 1559 1560 1561 1562 1563
1495 1499 1495 1484 1477 1478 1483 1486 1484 1486 1488 1491 1493 1496 1498 1501 1503 1505 1507 1509 1511 1514 1516 1518 1521 1524 1527 1529 1532 1535 1538 1540 1542 1545 1547 1549 1551 1553 1555 1556 1557 1559 1560 1560
1494 1501 1502 1484 1474 1475 1481 1488 1483 1484 1486 1489 1492 1497 1499 1500 1501 1503 1505 1507 1509 1511 1513 1516 1518 1521 1524 1526 1529 1531 1534 1536 1539 1541 1544 1546 1548 1550 1552 1554 1555 1556 1557 1558
1492 1495 1489 1477 1475 1477 1491 1488 1481 1482 1485 1488 1490 1494 1497 1499 1500 1501 1503 1505 1506 1508 1510 1513 1515 1518 1520 1523 1525 1528 1531 1533 1536 1538 1541 1543 1545 1548 1549 1551 1553 1554 1555 1556
1487 1494 1491 1476 1476 1480 1483 1480 1481 1483 1485 1488 1490 1493 1496 1498 1499 1501 1502 1503 1504 1506 1508 1510 1512 1515 1517 1520 1522 1525 1528 1530 1533 1535 1538 1540 1542 1545 1547 1549 1550 1551 1552 1553
1479 1483 1478 1476 1477 1479 1480 1481 1482 1484 1486 1488 1490 1493 1495 1497 1499 1500 1501 1502 1503 1504 1506 1508 1509 1512 1514 1517 1520 1522 1525 1527 1530 1533 1535 1537 1539 1541 1543 1545 1547 1548 1549 1550
1473 1474 1475 1476 1477 1479 1480 1481 1483 1484 1486 1488 1490 1492 1494 1496 1498 1499 1500 1501 1502 1503 1505 1506 1508 1510 1512 1515 1517 1520 1522 1525 1527 1530 1532 1534 1537 1538 1540 1542 1543 1545 1546 1546
1470 1472 1474 1475 1477 1479 1480 1481 1482 1484 1486 1488 1490 1491 1493 1495 1496 1497 1498 1499 1501 1502 1504 1505 1507 1509 1511 1513 1515 1517 1520 1522 1525 1527 1529 1531 1533 1535 1537 1538 1540 1541 1542 1543
1474 1473 1474 1475 1476 1478 1479 1481 1482 1484 1485 1487 1488 1490 1492 1493 1495 1496 1497 1498 1500 1501 1503 1504 1506 1507 1509 1511 1513 1515 1517 1520 1522 1524 1526 1528 1530 1532 1534 1536 1537 1538 1539 1540
1471 1472 1473 1474 1476 1477 1478 1480 1481 1483 1485 1486 1487 1489 1491 1492 1493 1495 1496 1497 1498 1500 1501 1503 1504 1506 1508 1509 1511 1513 1515 1517 1519 1521 1522 1524 1526 1528 1529 1532 1533 1534 1535 1536
1471 1472 1474 1475 1476 1477 1478 1479 1481 1482 1484 1485 1487 1488 1489 1491 1492 1493 1495 1496 1497 1498 1500 1501 1502 1504 1505 1507 1509 1511 1513 1514 1516 1517 1519 1521 1523 1524 1526 1527 1528 1529 1531 1532
1471 1472 1474 1475 1476 1476 1477 1479 1480 1482 1483 1484 1485 1487 1488 1489 1490 1492 1493 1494 1495 1497 1498 1499 1500 1502 1503 1505 1506 1508 1510 1511 1513 1514 1516 1518 1520 1521 1522 1523 1524 1525 1526 1527
1470 1471 1473 1474 1474 1475 1476 1478 1479 1480 1482 1483 1484 1485 1486 1488 1489 1490 1491 1492 1493 1495 1496 1497 1498 1499 1501 1502 1503 1505 1506 1508 1510 1511 1513 1515 1516 1517 1518 1519 1520 1521 1521 1522
1468 1469 1471 1472 1473 1474 1475 1477 1478 1479 1480 1481 1482 1483 1485 1486 1487 1489 1490 1491 1492 1493 1494 1495 1496 1497 1498 1499 1500 1501 1503 1505 1506 1508 1510 1511 1512 1513 1514 1515 1516 1516 1517 1517
1466 1467 1469 1470 1471 1473 1474 1476 1477 1478 1479 1480 1481 1482 1483 1484 1485 1487 1488 1489 1490 1491 1492 1492 1493 1494 1495 1496 1497 1499 1500 1502 1503 1505 1506 1507 1509 1510 1510 1511 1512 1512 1512 1513
1464 1465 1467 1468 1470 1471 1473 1474 1475 1476 1477 1478 1479 1480 1481 1482 1483 1484 1486 1487 1487 1488 1489 1490 1491 1492 1493 1494 1495 1496 1497 1499 1500 1501 1503 1504 1505 1506 1506 1507 1507 1508 1508 1508
1462 1464 1465 1466 1468 1470 1471 1472 1473 1473 1474 1475 1476 1477 1479 1480 1481 1482 1483 1484 1485 1486 1487 1487 1488 1489 1490 1491 1492 1493 1494 1496 1497 1498 1499 1500 1501 1501 1502 1502 1503 1503 1504 1504
1460 1462 1463 1465 1466 1467 1468 1469 1470 1471 1472 1473 1473 1475 1476 1477 1479 1480 1480 1481 1483 1484 1484 1485 1486 1486 1487 1488 1489 1490 1491 1492 1493 1494 1495 1496 1497 1497 1498 1498 1498 1499 1499 1499
1459 1460 1461 1462 1464 1465 1466 1467 1468 1468 1469 1470 1471 1472 1473 1474 1476 1477 1478 1479 1479 1480 1481 1482 1483 1483 1484 1485 1486 1487 1488 1489 1490 1491 1491 1492 1493 1493 1494 1494 1494 1494 1494 1494
1457 1458 1459 1460 1461 1462 1463 1464 1465 1465 1466 1467 1468 1469 1470 1471 1472 1473 1474 1475 1476 1477 1478 1478 1479 1480 1481 1481 1482 1483 1484 1485 1486 1486 1487 1488 1488 1489 1489 1489 1489 1489 1489 1489
1456 1457 1458 1458 1459 1459 1460 1461 1462 1463 1463 1464 1465 1466 1467 1468 1469 1470 1471 1472 1472 1473 1474 1475 1476 1476 1477 1478 1478 1479 1480 1481 1482 1482 1483 1484 1484 1484 1485 1485 1485 1485 1485 1485
1454 1455 1456 1456 1456 1457 1457 1458 1459 1460 1460 1461 1462 1463 1464 1465 1465 1466 1467 1468 1469 1470 1471 1471 1472 1473 1473 1474 1474 1475 1476 1477 1477 1478 1479 1479 1480 1480 1480 1481 1481 1481 1480 1480
1452 1453 1454 1454 1455 1455 1455 1455 1456 1457 1458 1459 1459 1460 1461 1462 1462 1463 1464 1465 1466 1466 1467 1468 1468 1469 1470 1470 1471 1472 1472 1473 1474 1474 1475 1475 1476 1476 1476 1477 1477 1476 1476 1476
1451 1451 1451 1452 1452 1452 1452 1453 1453 1454 1455 1456 1456 1457 1458 1458 1459 1460 1460 1461 1462 1463 1463 1464 1465 1465 1466 1467 1467 1468 1469 1469 1470 1470 1471 1471 1472 1472 1472 1473 1473 1473 1472 1472